Location: Drocourt
(49.0571°N, 1.7669°E)
Time: 06:44:50
(UTC+00:00)

SR - Pass Details

Date: 01 May 2024
Orbit: 579 x 859 km, 66.7° (Epoch: 26 May)

Event Time Altitude Azimuth Distance (km) Brightness Sun altitude
Exits shadow 00:28:39 24° 272° (W) 1,512 ? -25.2°
Maximum altitude 00:30:53 35° 317° (NW) 1,181 ? -25.1°
Drops below altitude 10° 00:35:23 10° 23° (NNE) 2,155 ? -25.0°
Sets 00:37:49 0° 33° (NNE) 3,027 ? -24.9°
